Regional Weather Roundup
Issued by NWS Albany, NY

Current Version | Previous Version | Graphics & Text | Print | Product List | Glossary On
Versions: 1 2 3 4 5 6 7 8 9 10 11 12 13 14 15 16 17 18 19 20 21 22 23 24 25 26 27 28 29 30 31 32 33 34 35 36 37 38 39 40 41 42 43 44 45 46 47 48 49 50
000
ASUS41 KALY 210510
RWRALY

NEW YORK STATE HOURLY WEATHER ROUNDUP
NATIONAL WEATHER SERVICE ALBANY NY
100 AM EDT WED OCT 21 2020

NOTE: "FAIR" INDICATES FEW OR NO CLOUDS BELOW 12,000 FEET WITH NO
SIGNIFICANT WEATHER AND/OR NO OBSTRUCTIONS TO VISIBILITY.

NYZ032-033-038>043-046>054-057>066-NYZ062>081-082-084-210600-
EAST


CITY           SKY/WX    TMP DP  RH WIND       PRES   REMARKS
ALBANY         CLOUDY    47  47 100 N7        30.30F
GLENS FALLS    CLOUDY    48  45  89 N5        30.31F
POUGHKEEPSIE   FOG       56  55  97 CALM      30.26R VSB 3/4
NEWBURGH       FOG       59  59 100 CALM      30.26S VSB 1/2
MONTGOMERY     CLOUDY    52  52 100 CALM      30.26R FOG
WHITE PLAINS   FOG       60  60 100 S5        30.27R VSB<1/4
ISLIP          FOG       62  62 100 S3        30.28S VSB 3/4
NEW YORK CITY  DRZL/FOG  63  60  90 SE5       30.27R VSB 1/4
CENTRAL PARK   CLOUDY    62  62 100 CALM      30.29F FOG
$$

NYZ005>009-017-018-044>046-055-056-210600-
CENTRAL


CITY           SKY/WX    TMP DP  RH WIND       PRES   REMARKS
FULTON         CLOUDY    48  45  89 CALM      30.24F
SYRACUSE       CLOUDY    49  46  90 E3        30.24F
ROME           CLOUDY    50  47  89 E7        30.26F
ELMIRA         CLOUDY    50  49  96 NE5       30.22F
BINGHAMTON     FOG       47  47 100 E5        30.23S VSB 1/4
MONTICELLO     PTCLDY    56  55  97 E3        30.28S
$$

NYZ026>034-041>043-087-210600-
NORTH


CITY           SKY/WX    TMP DP  RH WIND       PRES   REMARKS
WATERTOWN      CLOUDY    46  40  79 NE9       30.25F
FORT DRUM      NOT AVBL
OGDENSBURG     CLOUDY    41  39  93 E6        30.27F
MASSENA        CLOUDY    43  39  86 E12       30.32F
SARANAC LAKE   CLOUDY    41  40  96 NE7       30.27F
PLATTSBURGH    CLOUDY    46  43  89 N6        30.33F
$$

NYZ001>004-010>016-019>021-085-210600-
WEST


CITY           SKY/WX    TMP DP  RH WIND       PRES   REMARKS
NIAGARA FALLS  CLOUDY    48  44  86 E10       30.14F
BUFFALO        CLOUDY    49  45  86 E8        30.14F
DUNKIRK        CLOUDY    52  49  89 NW6       30.13F
JAMESTOWN      FOG       50  50 100 S7        30.16S VSB 1/2
WELLSVILLE     CLOUDY    46  46 100 SE10      30.20F FOG
ROCHESTER      DRIZZLE   47  45  93 SE9       30.22F
PENN YAN       CLOUDY    48  46  93 CALM      30.22F FOG
$$

             KEY
       WCI = WIND CHILL INDEX
       VSB = VISIBILITY
       HX  = HEAT INDEX
$$



USA.gov is the U.S. government's official web portal to all federal, state and local government web resources and services.